Find Local Weather

World > North America > United States > Wisconsin

Sheboygan, Wisconsin Regional Weather

Lat: 43.75N, Lon: 87.72W
Wx Zone: WIZ052
Feedback
Expires:201810170500;;303704
ASUS43 KMKX 170421
RWRWI 

WISCONSIN REGIONAL WEATHER ROUNDUP
NATIONAL WEATHER SERVICE MILWAUKEE/SULLIVAN WI
1100 PM CDT TUE OCT 16 2018

NOTE: "FAIR" INDICATES FEW OR NO CLOUDS BELOW 12,000 FEET WITH NO
SIGNIFICANT WEATHER AND/OR OBSTRUCTIONS TO VISIBILITY.


WIZ051-052-058>065-066-070>072-170500-
SOUTHEAST WISCONSIN
  
CITY           SKY/WX    TMP DP  RH WIND       PRES   REMARKS
MILWAUKEE      FAIR      50  35  56 W6        30.01R                  
WAUKESHA       FAIR      43  32  65 W7        30.03R                  
MILWAUKEE/TIMM FAIR      45  32  61 W6        30.02R                  
RACINE         FAIR      47  35  63 W7        30.03R                  
BURLINGTON     FAIR      44  35  70 W7        30.03R                  
KENOSHA        FAIR      46  38  73 W10       30.03R                  
FOND DU LAC    FAIR      45  31  58 W9        30.00R                  
SHEBOYGAN      CLOUDY    46  33  60 W6        29.98R                  
WEST BEND      MOCLDY    46  32  57 W9        30.00S                  
JUNEAU         FAIR      40  31  69 W3        30.03R                  
$$


SKY/WX - Weather  TMP - Temperature  DP - Dew Point  RH - Relative Humidity
WIND - Wind Direction/Speed PRES - Barometric Pressure
Opt in/Opt out of Taboola Video Ads